Clarksdale Fletcher Field Air, MS

12:34 AM CDT on October 21, 2019 (GMT -0500)
Fletcher

Weather History for KCKM - August, 2019

Change the Weather History Date:

Friday, August 23, 2019

  Actual Average (WUND) Record (WUND)
Temperature  
Mean Temperature 83 °F -  
Max Temperature 91 °F - - (-1)
Min Temperature 75 °F - - (-1)
Cooling Degree Days 18    
Growing Degree Days 33 (Base 50)    
Moisture  
Dew Point 76 °F    
Average Humidity 83    
Maximum Humidity 100    
Minimum Humidity 52    
Precipitation  
Precipitation 0.00 in - - ()
Sea Level Pressure  
Sea Level Pressure 29.98 in    
Wind  
Wind Speed 2 mph ()    
Max Wind Speed 9 mph    
Max Gust Speed 14 mph    
Visibility 9.8 miles    
Events      
Averages and records for this station are not official NWS values.
T = Trace of Precipitation, MM = Missing Value Source: Averaged Metar Reports

Daily Weather History Graph

Daily Weather History Graph

Search for Another Location

Airport or City:

Astronomy

Aug. 23, 2019 Rise Set
Actual Time 6:28 AM CDT 7:40 PM CDT
Civil Twilight 6:02 AM CDT 8:06 PM CDT
Nautical Twilight 5:31 AM CDT 8:36 PM CDT
Astronomical Twilight 4:59 AM CDT 9:09 PM CDT
Moon No Moon Rise 1:46 PM CDT (8/23)
Length of Visible Light 14h 03m
Length of Day
13h 11m
Waning Gibbous, 49% of the Moon is Illuminated
Aug 23
Waning Gibbous
Aug 30
New
Sep 5
First Quarter
Sep 13
Full
Sep 21
Last Quarter

Hourly Weather History & Observations

Time (CDT) Temp. Heat Index Dew Point Humidity Pressure Visibility Wind Dir Wind Speed Gust Speed Precip Events Conditions
12:35 AM 77.0 °F - 77.0 °F 100% 29.97 in 10.0 mi Calm Calm - N/A   Unknown
12:55 AM 77.0 °F - 77.0 °F 100% 29.97 in 10.0 mi Calm Calm - N/A   Unknown
1:35 AM 77.0 °F - 77.0 °F 100% 29.95 in 10.0 mi South 3.5 mph - N/A   Unknown
1:55 AM 77.0 °F - 77.0 °F 100% 29.95 in 10.0 mi Calm Calm - N/A   Unknown
2:15 AM 77.0 °F - 77.0 °F 100% 29.95 in 10.0 mi South 4.6 mph - N/A   Unknown
2:35 AM 77.0 °F - 77.0 °F 100% 29.95 in 10.0 mi SSW 4.6 mph - N/A   Unknown
2:55 AM 77.0 °F - 77.0 °F 100% 29.95 in 10.0 mi Calm Calm - N/A   Unknown
3:15 AM 77.0 °F - 77.0 °F 100% 29.95 in 10.0 mi Calm Calm - N/A   Unknown
3:35 AM 77.0 °F - 77.0 °F 100% 29.96 in 10.0 mi Calm Calm - N/A   Unknown
3:55 AM 77.0 °F - 77.0 °F 100% 29.96 in 10.0 mi WSW 4.6 mph - N/A   Unknown
4:15 AM 77.0 °F - 77.0 °F 100% 29.96 in 10.0 mi Calm Calm - N/A   Unknown
4:55 AM 75.2 °F - 75.2 °F 100% 29.97 in 10.0 mi Calm Calm - N/A   Unknown
5:15 AM 75.2 °F - 75.2 °F 100% 29.97 in 10.0 mi Calm Calm - N/A   Unknown
5:35 AM 75.2 °F - 75.2 °F 100% 29.97 in 10.0 mi Calm Calm - N/A   Unknown
5:55 AM 75.2 °F - 75.2 °F 100% 29.97 in 10.0 mi Calm Calm - N/A   Unknown
6:15 AM 75.2 °F - 75.2 °F 100% 29.96 in 9.0 mi Calm Calm - N/A   Unknown
6:35 AM 75.2 °F - 75.2 °F 100% 29.98 in 8.0 mi Calm Calm - N/A   Unknown
6:55 AM 75.2 °F - 75.2 °F 100% 29.99 in 6.0 mi Calm Calm - N/A   Mist
7:15 AM 75.2 °F - 75.2 °F 100% 30.01 in 5.0 mi WNW 4.6 mph - N/A   Mist
7:35 AM 75.2 °F - 75.2 °F 100% 30.02 in - Calm Calm - N/A   Unknown
7:55 AM 77.0 °F - 77.0 °F 100% 30.02 in 8.0 mi Calm Calm - N/A   Unknown
8:15 AM 77.0 °F - 77.0 °F 100% 30.03 in 10.0 mi Calm Calm - N/A   Unknown
8:35 AM 78.8 °F - 78.8 °F 100% 30.03 in 10.0 mi North 5.8 mph - N/A   Unknown
8:55 AM 80.6 °F 87.1 °F 77.0 °F 89% 30.03 in 10.0 mi NNE 3.5 mph - N/A   Unknown
9:15 AM 80.6 °F 86.2 °F 75.2 °F 84% 30.03 in 10.0 mi NE 5.8 mph - N/A   Unknown
9:35 AM 82.4 °F 89.5 °F 75.2 °F 79% 30.03 in 10.0 mi Variable 3.5 mph - N/A   Unknown
9:55 AM 82.4 °F 89.5 °F 75.2 °F 79% 30.03 in 10.0 mi Calm Calm - N/A   Unknown
10:15 AM 84.2 °F 92.3 °F 75.2 °F 74% 30.02 in 10.0 mi Calm Calm - N/A   Unknown
10:35 AM 86.0 °F 95.1 °F 75.2 °F 70% 30.02 in 10.0 mi Calm Calm - N/A   Unknown
10:55 AM 86.0 °F 95.1 °F 75.2 °F 70% 30.03 in 10.0 mi Calm Calm - N/A   Unknown
11:15 AM 86.0 °F 95.1 °F 75.2 °F 70% 30.02 in 10.0 mi Calm Calm - N/A   Unknown
11:55 AM 87.8 °F 97.6 °F 75.2 °F 66% 30.00 in 10.0 mi Calm Calm - N/A   Unknown
12:15 PM 87.8 °F 97.6 °F 75.2 °F 66% 30.00 in 10.0 mi Calm Calm - N/A   Unknown
12:35 PM 87.8 °F 97.6 °F 75.2 °F 66% 30.00 in 10.0 mi Calm Calm - N/A   Unknown
12:55 PM 87.8 °F 97.6 °F 75.2 °F 66% 29.99 in 10.0 mi Calm Calm - N/A   Unknown
1:15 PM 89.6 °F 99.8 °F 75.2 °F 62% 29.98 in 10.0 mi Calm Calm - N/A   Unknown
1:35 PM 89.6 °F 99.8 °F 75.2 °F 62% 29.98 in 10.0 mi West 5.8 mph - N/A   Unknown
1:55 PM 89.6 °F 102.2 °F 77.0 °F 66% 29.98 in 10.0 mi Calm Calm - N/A   Unknown
2:15 PM 89.6 °F 102.2 °F 77.0 °F 66% 29.98 in 10.0 mi Calm Calm - N/A   Unknown
2:35 PM 89.6 °F 99.8 °F 75.2 °F 62% 29.97 in 10.0 mi Calm Calm - N/A   Unknown
3:15 PM 89.6 °F 98.2 °F 73.4 °F 59% 29.95 in 10.0 mi Calm Calm - N/A   Unknown
3:35 PM 89.6 °F 99.8 °F 75.2 °F 62% 29.94 in 10.0 mi WNW 4.6 mph - N/A   Unknown
3:55 PM 91.4 °F 102.5 °F 75.2 °F 59% 29.94 in 10.0 mi Calm Calm - N/A   Unknown
4:15 PM 91.4 °F 100.1 °F 73.4 °F 55% 29.94 in - Calm Calm - N/A   Unknown
4:35 PM 89.6 °F 99.8 °F 75.2 °F 62% 29.94 in 10.0 mi Variable 4.6 mph - N/A   Unknown
4:55 PM 91.4 °F 100.1 °F 73.4 °F 55% 29.94 in 10.0 mi North 8.1 mph 13.8 mph N/A   Unknown
5:15 PM 91.4 °F 98.4 °F 71.6 °F 52% 29.94 in 10.0 mi NNE 4.6 mph 11.5 mph N/A   Unknown
5:35 PM 91.4 °F 98.4 °F 71.6 °F 52% 29.95 in 10.0 mi North 4.6 mph - N/A   Unknown
5:55 PM 91.4 °F 98.4 °F 71.6 °F 52% 29.95 in 10.0 mi North 6.9 mph - N/A   Unknown
6:15 PM 89.6 °F 98.2 °F 73.4 °F 59% 29.95 in 10.0 mi NE 4.6 mph - N/A   Unknown
6:35 PM 89.6 °F 96.2 °F 71.6 °F 55% 29.94 in 10.0 mi ENE 3.5 mph - N/A   Unknown
6:55 PM 89.6 °F 98.2 °F 73.4 °F 59% 29.94 in 10.0 mi Calm Calm - N/A   Unknown
7:15 PM 87.8 °F 97.6 °F 75.2 °F 66% 29.94 in 10.0 mi Calm Calm - N/A   Unknown
7:35 PM 84.2 °F 96.1 °F 78.8 °F 84% 29.95 in 10.0 mi East 4.6 mph - N/A   Unknown
7:55 PM 84.2 °F 98.3 °F 80.6 °F 89% 29.95 in 10.0 mi Calm Calm - N/A   Unknown
8:15 PM 82.4 °F 94.0 °F 80.6 °F 94% 29.95 in 10.0 mi Calm Calm - N/A   Unknown
9:15 PM 82.4 °F 94.0 °F 80.6 °F 94% 29.97 in 10.0 mi ESE 9.2 mph - N/A   Unknown
9:55 PM 80.6 °F 87.1 °F 77.0 °F 89% 29.97 in 10.0 mi ESE 4.6 mph - N/A   Unknown
10:15 PM 78.8 °F - 77.0 °F 94% 29.98 in 10.0 mi South 5.8 mph - N/A   Unknown
10:35 PM 78.8 °F - 77.0 °F 94% 29.99 in 10.0 mi South 4.6 mph - N/A   Unknown
10:55 PM 78.8 °F - 78.8 °F 100% 30.00 in 10.0 mi SSE 4.6 mph - N/A   Unknown
11:15 PM 77.0 °F - 77.0 °F 100% 30.00 in 10.0 mi SSE 5.8 mph - N/A   Unknown
11:35 PM 78.8 °F - 78.8 °F 100% 29.99 in 10.0 mi South 4.6 mph - N/A   Unknown
11:55 PM 78.8 °F - 78.8 °F 100% 29.99 in 10.0 mi SE 8.1 mph - N/A   Unknown